Aruba, Aruba

12:47 PM AST on October 19, 2019 (GMT -0400)
Oranjestad-Reina Beatrix International

Weather History for TNCA - September, 2019

Change the Weather History Date:

Wednesday, September 18, 2019

  Actual Average Record
Temperature  
Mean Temperature 84 °F -  
Max Temperature 88 °F 89 °F 95 °F (2005)
Min Temperature 80 °F 79 °F 37 °F (1999)
Cooling Degree Days 19    
Growing Degree Days 34 (Base 50)    
Moisture  
Dew Point 76 °F    
Average Humidity 75    
Maximum Humidity 84    
Minimum Humidity 62    
Precipitation  
Precipitation 0.00 in - - ()
Sea Level Pressure  
Sea Level Pressure 29.78 in    
Wind  
Wind Speed 5 mph ()    
Max Wind Speed 10 mph    
Max Gust Speed -    
Visibility 6.2 miles    
Events      
Averages and records for this station are not official NWS values.
T = Trace of Precipitation, MM = Missing Value Source: Averaged Metar Reports

Daily Weather History Graph

Daily Weather History Graph

Search for Another Location

Airport or City:

Astronomy

Sep. 18, 2019 Rise Set
Actual Time 6:29 AM AST 6:39 PM AST
Civil Twilight 6:08 AM AST 7:00 PM AST
Nautical Twilight 5:43 AM AST 7:24 PM AST
Astronomical Twilight 5:18 AM AST 7:49 PM AST
Moon 9:52 PM AST (9/18) 9:52 AM AST (9/18)
Length of Visible Light 12h 52m
Length of Day
12h 09m
Waning Gibbous, 82% of the Moon is Illuminated
Sep 18
Waning Gibbous
Sep 21
Last Quarter
Sep 28
New
Oct 5
First Quarter
Oct 13
Full

Hourly Weather History & Observations

Time (AST) Temp. Heat Index Dew Point Humidity Pressure Visibility Wind Dir Wind Speed Gust Speed Precip Events Conditions
12:00 AM 82.4 °F 89.5 °F 75.2 °F 79% 29.83 in 6.2 mi East 4.6 mph - N/A   Partly Cloudy
1:00 AM 82.4 °F 90.9 °F 77.0 °F 84% 29.80 in 6.2 mi ESE 3.5 mph - N/A   Partly Cloudy
2:00 AM 82 °F - 76 °F 78% 29.81 in 31 mi 2.3 mph - -   Scattered Clouds
2:00 AM 82.4 °F 90.9 °F 77.0 °F 84% 29.80 in 6.2 mi ESE 3.5 mph - N/A   Partly Cloudy
3:00 AM 82.4 °F 90.9 °F 77.0 °F 84% 29.80 in 6.2 mi Variable 1.2 mph - N/A   Partly Cloudy
4:00 AM 80.6 °F 86.2 °F 75.2 °F 84% 29.77 in 6.2 mi ESE 4.6 mph - N/A   Partly Cloudy
5:00 AM 80 °F - 76 °F 82% 29.78 in 31 mi SE 4.6 mph - -   Scattered Clouds
5:00 AM 80.6 °F 86.2 °F 75.2 °F 84% 29.77 in 6.2 mi ESE 4.6 mph - N/A   Partly Cloudy
6:00 AM 82.4 °F 90.9 °F 77.0 °F 84% 29.77 in 6.2 mi SSE 8.1 mph - N/A   Partly Cloudy
7:00 AM 82.4 °F 90.9 °F 77.0 °F 84% 29.80 in 6.2 mi SSE 6.9 mph - N/A   Partly Cloudy
8:00 AM 83 °F - 78 °F 80% 29.81 in 31 mi South 8.1 mph - -   Scattered Clouds
8:00 AM 84.2 °F 94.1 °F 77.0 °F 79% 29.80 in 6.2 mi SSE 8.1 mph - N/A   Partly Cloudy
9:00 AM 84.2 °F 94.1 °F 77.0 °F 79% 29.80 in 6.2 mi South 6.9 mph - N/A   Partly Cloudy
10:00 AM 86.0 °F 96.9 °F 77.0 °F 74% 29.83 in 6.2 mi South 5.8 mph - N/A   Partly Cloudy
11:00 AM 86 °F - 78 °F 70% 29.84 in 31 mi 5.8 mph - -   Scattered Clouds
11:00 AM 86.0 °F 96.9 °F 77.0 °F 74% 29.83 in 6.2 mi SSW 5.8 mph - N/A   Partly Cloudy
12:00 PM 86.0 °F 96.9 °F 77.0 °F 74% 29.80 in 6.2 mi WSW 6.9 mph - N/A   Partly Cloudy
1:00 PM 87.8 °F 99.7 °F 77.0 °F 70% 29.80 in 6.2 mi West 8.1 mph - N/A   Partly Cloudy
2:00 PM 88 °F - 77 °F 62% 29.77 in 31 mi WNW 9.2 mph - -   Scattered Clouds
2:00 PM 87.8 °F 99.7 °F 77.0 °F 70% 29.77 in 6.2 mi WNW 9.2 mph - N/A   Partly Cloudy
3:00 PM 86.0 °F 95.1 °F 75.2 °F 70% 29.71 in 6.2 mi WNW 10.4 mph - N/A   Partly Cloudy
4:00 PM 87.8 °F 97.6 °F 75.2 °F 66% 29.71 in 6.2 mi NW 10.4 mph - N/A   Partly Cloudy
5:00 PM 86 °F - 76 °F 65% 29.73 in 31 mi WNW 9.2 mph - -   Scattered Clouds
5:00 PM 86.0 °F 95.1 °F 75.2 °F 70% 29.71 in 6.2 mi WNW 10.4 mph - N/A   Partly Cloudy
6:00 PM 86.0 °F 95.1 °F 75.2 °F 70% 29.71 in 6.2 mi WNW 10.4 mph - N/A   Partly Cloudy
7:00 PM 86.0 °F 95.1 °F 75.2 °F 70% 29.74 in 6.2 mi NW 9.2 mph - N/A   Partly Cloudy
8:00 PM 85 °F - 75 °F 65% 29.77 in 31 mi 5.8 mph - -   Scattered Clouds
8:00 PM 84.2 °F 92.3 °F 75.2 °F 74% 29.77 in 6.2 mi North 4.6 mph - N/A   Partly Cloudy
10:00 PM 84.2 °F 92.3 °F 75.2 °F 74% 29.80 in 6.2 mi ENE 5.8 mph - N/A   Partly Cloudy
11:00 PM 84 °F - 75 °F 69% 29.81 in 31 mi East 5.8 mph - -   Scattered Clouds
11:00 PM 84.2 °F 92.3 °F 75.2 °F 74% 29.80 in 6.2 mi ENE 5.8 mph - N/A   Partly Cloudy